| time (UTC) | temp C | wind direction | speed KPH | gust KPH | rain 1hr cm | rain 24hr cm | rain mn cm | humidity % | barometer mb |
| 20260502151918 | 27 | 240 | 3.2 | 6.4 | 0.00 | 0.00 | 0.00 | 29 | 1012.9 |
| 20260502151414 | 27 | 209 | 4.8 | 4.8 | 0.00 | 0.00 | 0.00 | 29 | 1013.0 |
| 20260502150912 | 26 | 215 | 1.6 | 3.2 | 0.00 | 0.00 | 0.00 | 27 | 1013.1 |
| 20260502150408 | 26 | 226 | 1.6 | 3.2 | 0.00 | 0.00 | 0.00 | 28 | 1013.0 |
| 20260502130249 | 20 | 242 | 0.0 | 0.0 | 0.00 | 0.00 | 0.00 | 32 | 1011.5 |
| 20260502123735 | 18 | 243 | 0.0 | 1.6 | 0.00 | 0.00 | 0.00 | 34 | 1011.3 |
| 20260502123232 | 18 | 242 | 0.0 | 0.0 | 0.00 | 0.00 | 0.00 | 35 | 1011.2 |
| 20260502122728 | 18 | 241 | 0.0 | 0.0 | 0.00 | 0.00 | 0.00 | 33 | 1011.2 |
| 20260502122224 | 18 | 241 | 0.0 | 0.0 | 0.00 | 0.00 | 0.00 | 34 | 1010.9 |
| 20260502121723 | 18 | 241 | 0.0 | 0.0 | 0.00 | 0.00 | 0.00 | 34 | 1011.0 |
| 20260502121220 | 18 | 243 | 0.0 | 1.6 | 0.00 | 0.00 | 0.00 | 35 | 1011.1 |
| 20260502120716 | 18 | 242 | 0.0 | 0.0 | 0.00 | 0.00 | 0.00 | 37 | 1010.9 |
| 20260502120213 | 18 | 242 | 0.0 | 0.0 | 0.00 | 0.00 | 0.00 | 38 | 1010.9 |
| 20260502115711 | 18 | 241 | 0.0 | 0.0 | 0.00 | 0.00 | 0.00 | 36 | 1011.0 |
| 20260502115208 | 18 | 242 | 0.0 | 0.0 | 0.00 | 0.00 | 0.00 | 35 | 1011.0 |
| 20260502114704 | 18 | 240 | 0.0 | 0.0 | 0.00 | 0.00 | 0.00 | 34 | 1010.9 |
| 20260502114201 | 18 | 242 | 0.0 | 0.0 | 0.00 | 0.00 | 0.00 | 33 | 1010.6 |
| 20260502113658 | 18 | 242 | 0.0 | 0.0 | 0.00 | 0.00 | 0.00 | 34 | 1010.6 |
| 20260502113156 | 18 | 243 | 0.0 | 0.0 | 0.00 | 0.00 | 0.00 | 34 | 1010.6 |
| 20260502112654 | 18 | 241 | 0.0 | 0.0 | 0.00 | 0.00 | 0.00 | 34 | 1010.5 |
| 20260502112151 | 19 | 240 | 0.0 | 0.0 | 0.00 | 0.00 | 0.00 | 33 | 1010.6 |
| 20260502111648 | 19 | 238 | 0.0 | 1.6 | 0.00 | 0.00 | 0.00 | 32 | 1010.6 |
| 20260502111146 | 19 | 242 | 0.0 | 0.0 | 0.00 | 0.00 | 0.00 | 33 | 1010.8 |
| 20260502110644 | 20 | 241 | 1.6 | 1.6 | 0.00 | 0.00 | 0.00 | 31 | 1010.8 |
| 20260502110140 | 20 | 213 | 1.6 | 3.2 | 0.00 | 0.00 | 0.00 | 29 | 1010.5 |
| 20260502105638 | 20 | 242 | 0.0 | 0.0 | 0.00 | 0.00 | 0.00 | 30 | 1010.5 |
| 20260502105135 | 20 | 244 | 0.0 | 0.0 | 0.00 | 0.00 | 0.00 | 29 | 1010.6 |
| 20260502104632 | 20 | 242 | 0.0 | 0.0 | 0.00 | 0.00 | 0.00 | 28 | 1010.5 |
| 20260502104129 | 20 | 243 | 0.0 | 1.6 | 0.00 | 0.00 | 0.00 | 28 | 1010.5 |
| 20260502103627 | 21 | 247 | 0.0 | 1.6 | 0.00 | 0.00 | 0.00 | 29 | 1010.6 |
| 20260502103125 | 21 | 251 | 1.6 | 1.6 | 0.00 | 0.00 | 0.00 | 27 | 1010.5 |
| 20260502102621 | 21 | 255 | 1.6 | 3.2 | 0.00 | 0.00 | 0.00 | 29 | 1010.3 |
| 20260502102112 | 21 | 243 | 0.0 | 1.6 | 0.00 | 0.00 | 0.00 | 28 | 1010.3 |
| 20260502101610 | 21 | 245 | 0.0 | 1.6 | 0.00 | 0.00 | 0.00 | 28 | 1010.4 |
| 20260502101108 | 21 | 249 | 0.0 | 4.8 | 0.00 | 0.00 | 0.00 | 29 | 1010.4 |
| 20260502100607 | 21 | 244 | 0.0 | 0.0 | 0.00 | 0.00 | 0.00 | 29 | 1010.2 |
| 20260502100105 | 21 | 242 | 0.0 | 0.0 | 0.00 | 0.00 | 0.00 | 27 | 1010.2 |
| 20260502091038 | 21 | 239 | 0.0 | 1.6 | 0.00 | 0.00 | 0.00 | 29 | 1010.1 |
| 20260502090535 | 21 | 243 | 0.0 | 0.0 | 0.00 | 0.00 | 0.00 | 31 | 1010.0 |
| 20260502071429 | 26 | 243 | 0.0 | 0.0 | 0.00 | 0.00 | 0.00 | 20 | 1009.3 |
| 20260502070927 | 26 | 245 | 0.0 | 0.0 | 0.00 | 0.00 | 0.00 | 19 | 1009.4 |
| 20260502070425 | 26 | 253 | 0.0 | 1.6 | 0.00 | 0.00 | 0.00 | 19 | 1009.2 |
| 20260502065923 | 26 | 251 | 1.6 | 3.2 | 0.00 | 0.00 | 0.00 | 19 | 1009.2 |
| 20260502065422 | 26 | 246 | 0.0 | 1.6 | 0.00 | 0.00 | 0.00 | 19 | 1009.1 |
| 20260502064919 | 26 | 242 | 1.6 | 1.6 | 0.00 | 0.00 | 0.00 | 18 | 1009.2 |
| 20260502064417 | 27 | 245 | 0.0 | 1.6 | 0.00 | 0.00 | 0.00 | 19 | 1009.2 |
| 20260502063914 | 27 | 254 | 0.0 | 3.2 | 0.00 | 0.00 | 0.00 | 18 | 1009.2 |
| 20260502063411 | 27 | 253 | 1.6 | 3.2 | 0.00 | 0.00 | 0.00 | 18 | 1009.0 |
| 20260502062909 | 27 | 244 | 1.6 | 1.6 | 0.00 | 0.00 | 0.00 | 18 | 1009.1 |
| 20260502062406 | 27 | 244 | 3.2 | 4.8 | 0.00 | 0.00 | 0.00 | 18 | 1009.1 |
| 20260502061905 | 26 | 247 | 1.6 | 4.8 | 0.00 | 0.00 | 0.00 | 18 | 1009.0 |
| 20260502061402 | 26 | 245 | 1.6 | 1.6 | 0.00 | 0.00 | 0.00 | 18 | 1009.1 |
| 20260502060858 | 27 | 245 | 0.0 | 3.2 | 0.00 | 0.00 | 0.00 | 18 | 1009.0 |
| 20260502060353 | 27 | 245 | 0.0 | 0.0 | 0.00 | 0.00 | 0.00 | 17 | 1008.9 |
| 20260502055851 | 27 | 249 | 0.0 | 3.2 | 0.00 | 0.00 | 0.00 | 18 | 1009.2 |
| 20260502055348 | 27 | 241 | 0.0 | 4.8 | 0.00 | 0.00 | 0.00 | 17 | 1008.9 |
| 20260502054848 | 27 | 243 | 1.6 | 4.8 | 0.00 | 0.00 | 0.00 | 17 | 1008.8 |
| 20260502054345 | 26 | 265 | 3.2 | 4.8 | 0.00 | 0.00 | 0.00 | 18 | 1008.9 |
| 20260502053842 | 26 | 244 | 0.0 | 1.6 | 0.00 | 0.00 | 0.00 | 18 | 1008.8 |
| 20260502053340 | 26 | 244 | 0.0 | 1.6 | 0.00 | 0.00 | 0.00 | 19 | 1008.8 |
| 20260502052837 | 25 | 247 | 0.0 | 1.6 | 0.00 | 0.00 | 0.00 | 19 | 1009.0 |
| 20260502052335 | 24 | 241 | 0.0 | 0.0 | 0.00 | 0.00 | 0.00 | 20 | 1008.9 |
| 20260502051833 | 24 | 243 | 0.0 | 0.0 | 0.00 | 0.00 | 0.00 | 23 | 1008.7 |
| 20260502051331 | 24 | 243 | 0.0 | 0.0 | 0.00 | 0.00 | 0.00 | 24 | 1008.6 |
| 20260502050827 | 24 | 243 | 0.0 | 0.0 | 0.00 | 0.00 | 0.00 | 24 | 1008.7 |
| 20260502050324 | 25 | 242 | 0.0 | 0.0 | 0.00 | 0.00 | 0.00 | 23 | 1008.7 |
| 20260502045821 | 25 | 244 | 0.0 | 0.0 | 0.00 | 0.00 | 0.00 | 23 | 1008.5 |
| 20260502045317 | 25 | 241 | 0.0 | 0.0 | 0.00 | 0.00 | 0.00 | 22 | 1008.8 |
| 20260502044815 | 26 | 243 | 0.0 | 0.0 | 0.00 | 0.00 | 0.00 | 21 | 1008.7 |
| 20260502044311 | 26 | 243 | 0.0 | 0.0 | 0.00 | 0.00 | 0.00 | 19 | 1008.7 |
| 20260502043808 | 26 | 243 | 0.0 | 0.0 | 0.00 | 0.00 | 0.00 | 19 | 1008.6 |
| 20260502043306 | 26 | 244 | 0.0 | 0.0 | 0.00 | 0.00 | 0.00 | 18 | 1008.6 |
| 20260502042805 | 26 | 242 | 0.0 | 0.0 | 0.00 | 0.00 | 0.00 | 18 | 1008.7 |
| 20260502042305 | 26 | 243 | 0.0 | 0.0 | 0.00 | 0.00 | 0.00 | 19 | 1008.7 |
| 20260502041800 | 26 | 244 | 0.0 | 0.0 | 0.00 | 0.00 | 0.00 | 21 | 1008.6 |
| 20260502041257 | 26 | 242 | 0.0 | 0.0 | 0.00 | 0.00 | 0.00 | 18 | 1008.5 |
| 20260502040754 | 26 | 243 | 0.0 | 0.0 | 0.00 | 0.00 | 0.00 | 18 | 1008.4 |
| 20260502040250 | 27 | 243 | 0.0 | 0.0 | 0.00 | 0.00 | 0.00 | 18 | 1008.4 |
| 20260502035747 | 27 | 244 | 0.0 | 0.0 | 0.00 | 0.00 | 0.00 | 18 | 1008.4 |
| 20260502035244 | 27 | 243 | 0.0 | 0.0 | 0.00 | 0.00 | 0.00 | 17 | 1008.1 |
| 20260502034741 | 27 | 246 | 0.0 | 0.0 | 0.00 | 0.00 | 0.00 | 18 | 1008.3 |
| 20260502034239 | 27 | 246 | 0.0 | 0.0 | 0.00 | 0.00 | 0.00 | 17 | 1008.3 |
| 20260502033737 | 28 | 247 | 0.0 | 0.0 | 0.00 | 0.00 | 0.00 | 17 | 1008.3 |
| 20260502033235 | 28 | 253 | 3.2 | 3.2 | 0.00 | 0.00 | 0.00 | 17 | 1008.1 |
| 20260502032731 | 28 | 266 | 1.6 | 3.2 | 0.00 | 0.00 | 0.00 | 17 | 1008.0 |
| 20260502032227 | 28 | 245 | 0.0 | 1.6 | 0.00 | 0.00 | 0.00 | 17 | 1007.9 |
| 20260502031726 | 28 | 246 | 1.6 | 1.6 | 0.00 | 0.00 | 0.00 | 17 | 1008.0 |
| 20260502031223 | 28 | 251 | 1.6 | 3.2 | 0.00 | 0.00 | 0.00 | 17 | 1007.8 |
| 20260502030722 | 28 | 247 | 1.6 | 3.2 | 0.00 | 0.00 | 0.00 | 17 | 1007.9 |
| 20260502030219 | 28 | 249 | 0.0 | 1.6 | 0.00 | 0.00 | 0.00 | 17 | 1007.8 |
| 20260502025716 | 28 | 244 | 0.0 | 0.0 | 0.00 | 0.00 | 0.00 | 17 | 1007.4 |
| 20260502025214 | 29 | 246 | 1.6 | 1.6 | 0.00 | 0.00 | 0.00 | 17 | 1007.7 |
| 20260502024712 | 29 | 246 | 1.6 | 1.6 | 0.00 | 0.00 | 0.00 | 17 | 1007.4 |
| 20260502024209 | 29 | 262 | 1.6 | 1.6 | 0.00 | 0.00 | 0.00 | 17 | 1007.4 |
| 20260502023707 | 30 | 257 | 3.2 | 3.2 | 0.00 | 0.00 | 0.00 | 16 | 1007.4 |
| 20260502023204 | 30 | 255 | 1.6 | 3.2 | 0.00 | 0.00 | 0.00 | 17 | 1007.4 |
| 20260502022701 | 30 | 260 | 3.2 | 4.8 | 0.00 | 0.00 | 0.00 | 17 | 1007.1 |
| 20260502022158 | 30 | 257 | 1.6 | 3.2 | 0.00 | 0.00 | 0.00 | 17 | 1007.3 |
| 20260502021655 | 30 | 246 | 3.2 | 4.8 | 0.00 | 0.00 | 0.00 | 17 | 1007.3 |
| 20260502021153 | 30 | 278 | 3.2 | 4.8 | 0.00 | 0.00 | 0.00 | 16 | 1007.1 |
| 20260502020649 | 30 | 254 | 3.2 | 3.2 | 0.00 | 0.00 | 0.00 | 16 | 1007.1 |
| 20260502020146 | 30 | 243 | 1.6 | 4.8 | 0.00 | 0.00 | 0.00 | 16 | 1007.2 |
| 20260502015644 | 31 | 264 | 3.2 | 4.8 | 0.00 | 0.00 | 0.00 | 16 | 1007.1 |
| 20260502015140 | 31 | 254 | 3.2 | 4.8 | 0.00 | 0.00 | 0.00 | 17 | 1007.0 |
| 20260502014638 | 31 | 256 | 3.2 | 4.8 | 0.00 | 0.00 | 0.00 | 16 | 1007.1 |
| 20260502014135 | 31 | 245 | 1.6 | 3.2 | 0.00 | 0.00 | 0.00 | 16 | 1007.2 |
| 20260502013631 | 31 | 262 | 3.2 | 4.8 | 0.00 | 0.00 | 0.00 | 17 | 1007.3 |
| 20260502013126 | 31 | 246 | 0.0 | 3.2 | 0.00 | 0.00 | 0.00 | 17 | 1007.0 |
| 20260502012624 | 32 | 283 | 3.2 | 6.4 | 0.00 | 0.00 | 0.00 | 17 | 1007.0 |
| 20260502012122 | 32 | 271 | 3.2 | 4.8 | 0.00 | 0.00 | 0.00 | 17 | 1007.2 |
| 20260502011618 | 32 | 248 | 3.2 | 4.8 | 0.00 | 0.00 | 0.00 | 17 | 1007.0 |
| 20260502011114 | 32 | 162 | 3.2 | 4.8 | 0.00 | 0.00 | 0.00 | 16 | 1007.1 |
| 20260502010612 | 32 | 254 | 3.2 | 6.4 | 0.00 | 0.00 | 0.00 | 17 | 1007.2 |
| 20260502010108 | 32 | 248 | 0.0 | 4.8 | 0.00 | 0.00 | 0.00 | 18 | 1007.4 |
| 20260502005606 | 32 | 245 | 3.2 | 6.4 | 0.00 | 0.00 | 0.00 | 16 | 1007.1 |
| 20260502005103 | 32 | 302 | 3.2 | 6.4 | 0.00 | 0.00 | 0.00 | 17 | 1007.2 |
| 20260502004559 | 32 | 252 | 3.2 | 6.4 | 0.00 | 0.00 | 0.00 | 16 | 1007.3 |
| 20260502004056 | 32 | 7 | 6.4 | 9.7 | 0.00 | 0.00 | 0.00 | 16 | 1007.2 |
| 20260502003555 | 32 | 238 | 6.4 | 9.7 | 0.00 | 0.00 | 0.00 | 17 | 1007.2 |
| 20260502003051 | 32 | 256 | 1.6 | 9.7 | 0.00 | 0.00 | 0.00 | 17 | 1007.2 |
| 20260502002547 | 32 | 253 | 3.2 | 11.3 | 0.00 | 0.00 | 0.00 | 17 | 1007.3 |
| 20260502002045 | 33 | 259 | 6.4 | 11.3 | 0.00 | 0.00 | 0.00 | 16 | 1007.3 |
| 20260502001543 | 32 | 269 | 4.8 | 6.4 | 0.00 | 0.00 | 0.00 | 17 | 1007.4 |
| 20260502001039 | 32 | 33 | 6.4 | 9.7 | 0.00 | 0.00 | 0.00 | 17 | 1007.1 |
| 20260502000538 | 33 | 246 | 3.2 | 9.7 | 0.00 | 0.00 | 0.00 | 17 | 1007.2 |
| 20260502000034 | 32 | 335 | 6.4 | 9.7 | 0.00 | 0.00 | 0.00 | 17 | 1007.2 |
| 20260501235530 | 32 | 286 | 4.8 | 4.8 | 0.00 | 0.00 | 0.00 | 17 | 1007.3 |
| 20260501235026 | 32 | 244 | 3.2 | 11.3 | 0.00 | 0.00 | 0.00 | 18 | 1007.1 |
| 20260501234522 | 32 | 225 | 4.8 | 11.3 | 0.00 | 0.00 | 0.00 | 17 | 1007.1 |
| 20260501234020 | 32 | 232 | 3.2 | 6.4 | 0.00 | 0.00 | 0.00 | 18 | 1007.2 |
| 20260501233518 | 32 | 259 | 3.2 | 6.4 | 0.00 | 0.00 | 0.00 | 19 | 1007.2 |
| 20260501233015 | 32 | 251 | 4.8 | 6.4 | 0.00 | 0.00 | 0.00 | 19 | 1007.3 |
| 20260501232511 | 32 | 219 | 4.8 | 9.7 | 0.00 | 0.00 | 0.00 | 19 | 1007.6 |
| 20260501232008 | 33 | 67 | 6.4 | 14.5 | 0.00 | 0.00 | 0.00 | 18 | 1007.4 |
| 20260501231506 | 32 | 289 | 8.0 | 12.9 | 0.00 | 0.00 | 0.00 | 18 | 1007.6 |
| 20260501231004 | 32 | 220 | 3.2 | 9.7 | 0.00 | 0.00 | 0.00 | 19 | 1007.6 |
| 20260501230503 | 32 | 246 | 1.6 | 12.9 | 0.00 | 0.00 | 0.00 | 19 | 1007.7 |
| 20260501230000 | 32 | 267 | 3.2 | 6.4 | 0.00 | 0.00 | 0.00 | 20 | 1007.7 |
| 20260501225458 | 32 | 250 | 6.4 | 12.9 | 0.00 | 0.00 | 0.00 | 19 | 1007.6 |
| 20260501224953 | 32 | 254 | 6.4 | 17.7 | 0.00 | 0.00 | 0.00 | 18 | 1007.7 |
| 20260501224451 | 32 | 296 | 4.8 | 12.9 | 0.00 | 0.00 | 0.00 | 21 | 1007.8 |
| 20260501223948 | 32 | 251 | 8.0 | 12.9 | 0.00 | 0.00 | 0.00 | 20 | 1007.9 |
| 20260501223444 | 32 | 264 | 4.8 | 12.9 | 0.00 | 0.00 | 0.00 | 20 | 1007.9 |
| 20260501222939 | 32 | 287 | 4.8 | 9.7 | 0.00 | 0.00 | 0.00 | 20 | 1007.9 |
| 20260501222437 | 32 | 256 | 3.2 | 11.3 | 0.00 | 0.00 | 0.00 | 21 | 1007.9 |
| 20260501221933 | 32 | 268 | 6.4 | 9.7 | 0.00 | 0.00 | 0.00 | 21 | 1008.2 |
| 20260501221430 | 32 | 276 | 11.3 | 14.5 | 0.00 | 0.00 | 0.00 | 19 | 1008.1 |
| 20260501220928 | 32 | 263 | 8.0 | 11.3 | 0.00 | 0.00 | 0.00 | 20 | 1008.1 |
| 20260501220426 | 32 | 246 | 4.8 | 11.3 | 0.00 | 0.00 | 0.00 | 20 | 1008.2 |
| 20260501215921 | 32 | 281 | 14.5 | 16.1 | 0.00 | 0.00 | 0.00 | 19 | 1008.4 |
| 20260501215418 | 32 | 253 | 3.2 | 3.2 | 0.00 | 0.00 | 0.00 | 20 | 1008.3 |
| 20260501214914 | 32 | 274 | 4.8 | 9.7 | 0.00 | 0.00 | 0.00 | 20 | 1008.5 |
| 20260501214409 | 32 | 190 | 6.4 | 9.7 | 0.00 | 0.00 | 0.00 | 20 | 1008.4 |
| 20260501213905 | 32 | 215 | 4.8 | 9.7 | 0.00 | 0.00 | 0.00 | 20 | 1008.6 |
| 20260501213402 | 31 | 249 | 0.0 | 4.8 | 0.00 | 0.00 | 0.00 | 22 | 1008.6 |
| 20260501212857 | 32 | 243 | 3.2 | 6.4 | 0.00 | 0.00 | 0.00 | 21 | 1008.8 |
| 20260501212355 | 32 | 241 | 6.4 | 9.7 | 0.00 | 0.00 | 0.00 | 20 | 1009.0 |
| 20260501211851 | 32 | 249 | 3.2 | 3.2 | 0.00 | 0.00 | 0.00 | 21 | 1008.8 |
| 20260501211349 | 31 | 247 | 0.0 | 1.6 | 0.00 | 0.00 | 0.00 | 24 | 1008.7 |
| 20260501210846 | 31 | 221 | 3.2 | 3.2 | 0.00 | 0.00 | 0.00 | 21 | 1009.1 |
| 20260501210343 | 31 | 247 | 3.2 | 6.4 | 0.00 | 0.00 | 0.00 | 22 | 1009.1 |
| 20260501205839 | 31 | 211 | 3.2 | 9.7 | 0.00 | 0.00 | 0.00 | 22 | 1009.3 |
| 20260501205336 | 31 | 228 | 4.8 | 17.7 | 0.00 | 0.00 | 0.00 | 22 | 1009.2 |
| 20260501204833 | 31 | 266 | 6.4 | 9.7 | 0.00 | 0.00 | 0.00 | 21 | 1009.3 |
| 20260501204329 | 31 | 312 | 4.8 | 9.7 | 0.00 | 0.00 | 0.00 | 22 | 1009.5 |
| 20260501203826 | 31 | 251 | 1.6 | 6.4 | 0.00 | 0.00 | 0.00 | 23 | 1009.4 |
| 20260501203323 | 31 | 259 | 6.4 | 11.3 | 0.00 | 0.00 | 0.00 | 21 | 1009.5 |
| 20260501202820 | 31 | 353 | 4.8 | 6.4 | 0.00 | 0.00 | 0.00 | 22 | 1009.4 |
| 20260501202316 | 31 | 234 | 1.6 | 6.4 | 0.00 | 0.00 | 0.00 | 22 | 1009.5 |
| 20260501201814 | 31 | 235 | 3.2 | 6.4 | 0.00 | 0.00 | 0.00 | 23 | 1009.7 |
| 20260501201310 | 31 | 233 | 3.2 | 4.8 | 0.00 | 0.00 | 0.00 | 23 | 1009.6 |
| 20260501200806 | 30 | 258 | 4.8 | 4.8 | 0.00 | 0.00 | 0.00 | 23 | 1009.6 |
| 20260501200303 | 29 | 289 | 6.4 | 6.4 | 0.00 | 0.00 | 0.00 | 23 | 1009.7 |
| 20260501195802 | 29 | 256 | 4.8 | 4.8 | 0.00 | 0.00 | 0.00 | 23 | 1009.8 |
| 20260501195257 | 30 | 284 | 4.8 | 11.3 | 0.00 | 0.00 | 0.00 | 23 | 1009.9 |
| 20260501194753 | 30 | 252 | 0.0 | 4.8 | 0.00 | 0.00 | 0.00 | 22 | 1009.9 |
| 20260501194249 | 30 | 249 | 4.8 | 9.7 | 0.00 | 0.00 | 0.00 | 25 | 1009.9 |
| 20260501193746 | 30 | 252 | 6.4 | 9.7 | 0.00 | 0.00 | 0.00 | 24 | 1009.8 |
| 20260501193244 | 30 | 234 | 3.2 | 6.4 | 0.00 | 0.00 | 0.00 | 24 | 1010.0 |
| 20260501192741 | 30 | 260 | 1.6 | 9.7 | 0.00 | 0.00 | 0.00 | 23 | 1010.1 |
| 20260501192238 | 30 | 244 | 1.6 | 3.2 | 0.00 | 0.00 | 0.00 | 24 | 1010.3 |
| 20260501191735 | 30 | 243 | 0.0 | 4.8 | 0.00 | 0.00 | 0.00 | 25 | 1010.3 |
| 20260501191233 | 29 | 242 | 3.2 | 9.7 | 0.00 | 0.00 | 0.00 | 25 | 1010.4 |
| 20260501190729 | 29 | 159 | 3.2 | 6.4 | 0.00 | 0.00 | 0.00 | 24 | 1010.3 |
| 20260501190225 | 28 | 187 | 4.8 | 6.4 | 0.00 | 0.00 | 0.00 | 24 | 1010.5 |
| 20260501185721 | 28 | 229 | 4.8 | 6.4 | 0.00 | 0.00 | 0.00 | 25 | 1010.5 |
| 20260501185217 | 28 | 200 | 1.6 | 6.4 | 0.00 | 0.00 | 0.00 | 25 | 1010.8 |
| 20260501184713 | 29 | 209 | 3.2 | 9.7 | 0.00 | 0.00 | 0.00 | 25 | 1010.9 |
| 20260501184208 | 29 | 327 | 4.8 | 6.4 | 0.00 | 0.00 | 0.00 | 25 | 1010.9 |
| 20260501183704 | 28 | 234 | 0.0 | 4.8 | 0.00 | 0.00 | 0.00 | 26 | 1011.0 |
| 20260501183201 | 28 | 216 | 1.6 | 9.7 | 0.00 | 0.00 | 0.00 | 25 | 1011.0 |
| 20260501182658 | 28 | 223 | 4.8 | 4.8 | 0.00 | 0.00 | 0.00 | 26 | 1011.1 |
| 20260501182154 | 28 | 65 | 4.8 | 9.7 | 0.00 | 0.00 | 0.00 | 26 | 1011.2 |
| 20260501181652 | 28 | 108 | 4.8 | 6.4 | 0.00 | 0.00 | 0.00 | 26 | 1011.4 |
| 20260501181149 | 27 | 203 | 4.8 | 6.4 | 0.00 | 0.00 | 0.00 | 25 | 1011.3 |
| 20260501180647 | 27 | 258 | 3.2 | 6.4 | 0.00 | 0.00 | 0.00 | 26 | 1011.6 |
| 20260501180143 | 27 | 244 | 0.0 | 3.2 | 0.00 | 0.00 | 0.00 | 27 | 1011.5 |
| 20260501175639 | 27 | 204 | 3.2 | 6.4 | 0.00 | 0.00 | 0.00 | 27 | 1011.5 |
| 20260501175137 | 27 | 239 | 0.0 | 3.2 | 0.00 | 0.00 | 0.00 | 27 | 1011.7 |
| 20260501174634 | 27 | 234 | 1.6 | 4.8 | 0.00 | 0.00 | 0.00 | 27 | 1011.5 |
| 20260501174131 | 27 | 273 | 1.6 | 3.2 | 0.00 | 0.00 | 0.00 | 28 | 1011.6 |
| 20260501173628 | 27 | 243 | 3.2 | 4.8 | 0.00 | 0.00 | 0.00 | 28 | 1011.8 |
| 20260501173125 | 27 | 245 | 1.6 | 3.2 | 0.00 | 0.00 | 0.00 | 28 | 1011.7 |
| 20260501172616 | 27 | 205 | 4.8 | 6.4 | 0.00 | 0.00 | 0.00 | 28 | 1011.7 |
| 20260501172116 | 27 | 109 | 6.4 | 6.4 | 0.00 | 0.00 | 0.00 | 29 | 1011.8 |
| 20260501171612 | 27 | 256 | 1.6 | 4.8 | 0.00 | 0.00 | 0.00 | 28 | 1011.8 |
| 20260501171109 | 27 | 234 | 1.6 | 6.4 | 0.00 | 0.00 | 0.00 | 29 | 1011.8 |
| 20260501170606 | 27 | 236 | 3.2 | 4.8 | 0.00 | 0.00 | 0.00 | 29 | 1011.8 |
| 20260501165600 | 26 | 244 | 0.0 | 1.6 | 0.00 | 0.00 | 0.00 | 31 | 1011.9 |
| 20260501165058 | 26 | 314 | 4.8 | 6.4 | 0.00 | 0.00 | 0.00 | 31 | 1011.8 |
| 20260501164555 | 25 | 257 | 3.2 | 4.8 | 0.00 | 0.00 | 0.00 | 31 | 1011.8 |
| 20260501164052 | 25 | 254 | 3.2 | 4.8 | 0.00 | 0.00 | 0.00 | 32 | 1011.8 |
| 20260501163549 | 25 | 296 | 4.8 | 6.4 | 0.00 | 0.00 | 0.00 | 32 | 1011.8 |
| 20260501163046 | 25 | 355 | 4.8 | 6.4 | 0.00 | 0.00 | 0.00 | 32 | 1011.8 |
| 20260501162542 | 25 | 239 | 3.2 | 6.4 | 0.00 | 0.00 | 0.00 | 32 | 1011.7 |
| 20260501162039 | 25 | 262 | 1.6 | 4.8 | 0.00 | 0.00 | 0.00 | 32 | 1011.6 |
| 20260501161536 | 25 | 253 | 3.2 | 4.8 | 0.00 | 0.00 | 0.00 | 33 | 1011.7 |
| 20260501161032 | 25 | 243 | 0.0 | 3.2 | 0.00 | 0.00 | 0.00 | 32 | 1011.9 |
| 20260501160530 | 25 | 234 | 1.6 | 4.8 | 0.00 | 0.00 | 0.00 | 33 | 1011.8 |
| 20260501160027 | 25 | 242 | 0.0 | 1.6 | 0.00 | 0.00 | 0.00 | 33 | 1011.6 |
| 20260501155523 | 25 | 220 | 1.6 | 4.8 | 0.00 | 0.00 | 0.00 | 33 | 1011.6 |
| 20260501155020 | 25 | 272 | 1.6 | 4.8 | 0.00 | 0.00 | 0.00 | 34 | 1011.6 |
| 20260501154518 | 25 | 229 | 4.8 | 6.4 | 0.00 | 0.00 | 0.00 | 34 | 1011.6 |
| 20260501154014 | 24 | 231 | 1.6 | 3.2 | 0.00 | 0.00 | 0.00 | 35 | 1011.6 |